Terminal Aerodrome Forecast
Issued by NWS Mt. Holly, NJ

Home | Current Version | Previous Version | Text Only | Print | Product List | Glossary On
Versions: 1 2 3 4 5 6 7 8 9 10 11 12 13 14 15 16 17 18 19
732
FTUS41 KPHI 062214 AAB
TAFRDG
TAF AMD
KRDG 062214Z 0622/0718 VRB03KT 5SM -RA OVC050
     FM070000 10009KT 4SM -RA BR OVC015
     FM070200 07005KT 2SM RA BR OVC008
     FM070400 04007KT 2SM -RADZ BR OVC004
     FM070900 33004KT 4SM BR OVC008=

USA.gov is the U.S. government's official web portal to all federal, state and local government web resources and services.